EHI
0 0 0 0 0 0 0 0 0 0 0 0 0 0 0 0 0 0 0 0 0 0 0 0 0 0 0 0 0 0 0 0 0 0 0 0 0 0 0 0 0 0 0
0 0 0 0 0 0 0 0 0 0 0 0 0 0 0 0 0 0 0 0 0 0 0 0 0 0 0 0 0 0 0 0 0 0 0 0 0 0 0 0 0 0 0
0 0 0 0 0 0 0 0 0 0 0 0 0 0 0 0 0 0 0 0 0 0 0 0 0 0 0 0 0 0 0 0 0 0 0 0 0 0 0 0 0 0 0
0 0 0 0 0 0 0 0 0 0 0 0 0 0 0 0 0 0 0 0 0 0 0 0 0 0 0 0 0 0 0 0 0 0 0 0 0 0 0 0 0 0 0
0 0 0 0 0 0 0 0 0 0 0 0 0 0 0 0 0 0 0 0 0 0 0 0 0 0 0 0 0 0 0 0 0 0 0 0 0 0 0 0 0 0 0
0 0 0 0 0 0 0 0 0 0 0 0 0 0 0 0 0 0 0 0 0 0 0 0 0 0 0 0 0 0 0 0 0 0 0 0 0 0 0 0 0 0 0
0 0 0 0 0 0 0 0 0 0 0 0 0 0 0 0 0 0 0 0 0 0 0 0 0 0 0 0 0 0 0 0 0 0 0 0 0 0 0 0 0 0 0
0 0 0 0 0 0 0 0 0 0 0 0 0 0 0 0 0 0 0 0 0 0 0 0 0 0 0 0 0 0 0 0 0 0 0 0 0 0 0 0 0 0 0
0 0 0 0 0 0 0 0 0 0 0 0 0 0 0 0 0 0 0 0 0 0 0 0 0 0 0 0 0 0 0 0 0 0 0 0 0 0 0 0 0 0 0
0 0 0 0 0 0 0 0 0 0 0 0 0 0 0 0 0 0 0 0 0 0 0 0 0 0 0 0 0 0 0 0 0 0 0 0 0 0 0 0 0 0 0
0 0 0 0 0 0 0 0 0 0 0 0 0 0 0 0 0 0 0 0 0 0 0 0 0 0 0 0 0 0 0 0 0 0 0 0 0 0 0 0 0 0 0
0 0 0 0 0 0 0 0 0 0 0 0 0 0 0 0 0 0 0 0 0 0 0 0 0 0 0 0 0 0 0 0 0 0 0 0 0 0 0 0 0 0 0
0 0 0 0 0 0 0 0 0 0 0 0 0 0 0 0 0 0 0 0 0 0 0 0 0 0 0 0 0 0 0 0 0 0 0 0 0 0 0 0 0 0 0
0 0 0 0 0 0 0 0 0 0 0 0 0 0 0 0 0 0 0 0 0 0 0 0 0 0 0 0 0 0 0 0 0 0 0 0 0 0 0 0 0 0 0
0 0 0 0 0 0 0 0 0 0 0 0 0 0 0 0 0 0 0 0 0 0 0 0 0 0 0 0 0 0 0 0 0 0 0 0 0 0 0 0 0 0 0
0 0 0 0 0 0 0 0 0 0 0 0 0 0 0 0 0 0 0 0 0 0 0 0 0 0 0 0 0 0 0 0 0 0 0 0 0 0 0 0 0 0 0
0 0 0 0 0 0 0 0 0 0 0 0 0 0 0 0 0 0 0 0 0 0 0 0 0 0 0 0 0 0 0 0 0 0 0 0 0 0 0 0 0 0 0
0 0 0 0 0 0 0 0 0 0 0 0 0 0 0 0 0 0 0 0 0 0 0 0 0 0 0 0 0 0 0 0 0 0 0 0 0 0 0 0 0 0 0
0 0 0 0 0 0 0 0 0 0 0 0 0 0 0 0 0 0 0 0 0 0 0 0 0 0 0 0 0 0 0 0 0 0 0 0 0 0 0 0 0 0 0
0 0 0 0 0 0 0 0 0 0 0 0 0 0 0 0 0 0 0 0 0 0 0 0 0 0 0 0 0 0 0 0 0 0 0 0 0 0 0 0 0 0 0
0 0 0 0 0 0 0 0 0 0 0 0 0 0 0 0 0 0 0 0 0 0 0 0 0 0 0 0 0 0 0 0 0 0 0 0 0 0 0 0 0 0 0
0 0 0 0 0 0 0 0 0 0 0 0 0 0 0 0 0 0 0 0 0 0 0 0 0 0 0 0 0 0 0 0 0 0 0 0 0 0 0 0 0 0 0
0 0 0 0 0 0 0 0 0 0 0 0 0 0 0 0 0 0 0 0 0 0 0 0 0 0 0 0 0 0 0 0 0 0 0 0 0 0 0 0 0 0 0
0 0 0 0 0 0 0 0 0 0 0 0 0 0 0 0 0 0 0 0 0 0 0 0 0 0 0 0 0 0 0 0 0 0 0 0 0 0 0 0 0 0 0
0 0 0 0 0 0 0 0 0 0 0 0 0 0 0 0 0 0 0 0 0 0 0 0 0 0 0 0 0 0 0 0 0 0 0 0 0 0 0 0 0 0 0
0 0 0 0 0 0 0 0 0 0 0 0 0 0 0 0 0 0 0 0 0 0 0 0 0 0 0 0 0 0 0 0 0 0 0 0 0 0 0 0 0 0 0
Wind_Speed
3 3 3 3 3 3 3 3 4 4 4 4 4 4 5 5 4 4 3 6 8 9 9 9 8 8 8 8 7 7 7 7 6 6 6 6 5 6 6 6 6 6 6
3 3 3 4 4 3 4 4 5 4 4 4 5 5 5 4 4 4 4 4 7 8 9 9 9 8 8 8 8 7 7 7 7 6 6 7 7 6 7 7 7 7 8
3 3 3 4 4 4 4 4 4 3 4 4 5 5 4 5 5 5 5 4 4 6 8 9 9 9 9 9 9 8 8 8 8 7 8 8 7 7 7 8 8 8 9
4 3 3 4 4 3 4 4 4 4 4 4 4 4 4 4 5 5 4 4 3 3 5 8 8 8 8 9 10 9 9 8 8 8 7 8 8 8 9 8 8 9 9
4 4 4 4 4 3 4 5 4 4 4 4 4 4 4 4 4 4 4 5 4 4 3 5 7 7 8 9 10 10 9 8 7 7 7 7 8 9 9 10 10 10 10
3 3 3 4 3 3 4 4 4 4 3 4 4 4 4 4 3 4 5 4 4 4 4 4 4 4 6 7 8 8 9 8 8 8 8 8 9 9 10 10 10 11 11
3 3 3 3 3 4 4 4 4 4 4 2 2 2 3 4 4 4 4 4 4 4 4 4 3 3 3 6 7 8 8 9 9 9 9 9 10 10 11 11 11 12 12
3 2 3 2 3 3 4 4 4 3 3 3 3 2 2 2 3 4 4 4 5 3 4 4 4 3 3 2 3 6 7 9 10 11 10 11 11 12 12 12 12 12 12
2 2 2 2 3 3 3 4 5 5 4 3 3 3 3 4 2 2 3 4 4 3 3 3 4 4 4 3 2 4 6 7 10 12 12 12 13 13 13 13 13 13 12
2 2 2 2 2 2 3 3 4 4 4 4 3 3 2 1 2 2 2 2 3 3 3 3 3 4 3 3 3 4 5 7 10 12 13 14 14 14 14 14 14 14 13
2 2 1 1 1 2 2 2 2 3 3 3 3 2 2 1 2 2 3 2 1 2 3 3 3 3 3 3 3 4 5 7 10 11 13 14 14 14 14 15 14 14 14
2 2 1 1 1 1 2 2 2 2 2 2 2 2 2 2 2 2 3 2 2 2 2 2 2 2 2 2 2 3 5 7 10 12 13 14 14 14 15 15 15 15 15
1 2 2 2 1 1 1 1 1 1 2 2 2 2 2 2 1 1 2 2 2 2 1 1 2 1 0 1 2 4 5 7 9 11 13 13 13 13 14 15 16 15 15
1 2 2 1 1 1 1 0 0 1 1 2 2 2 1 1 1 1 1 1 2 2 2 3 1 1 0 1 3 4 4 7 9 10 12 12 12 12 13 14 15 16 15
1 2 2 2 1 1 1 0 0 0 1 1 2 2 1 1 1 1 1 1 2 3 4 2 1 1 2 2 4 2 3 7 9 10 11 11 12 13 13 13 14 14 14
1 1 2 2 1 1 1 1 0 0 1 0 1 1 1 1 1 1 1 1 2 3 4 2 2 2 3 3 5 4 4 8 9 10 11 11 12 13 13 13 13 12 12
1 1 1 1 1 1 1 1 1 1 1 1 1 1 0 0 0 1 1 1 2 2 5 3 2 2 3 4 4 3 4 4 5 10 11 12 12 12 11 11 11 11 12
1 1 1 1 1 1 1 1 1 1 1 1 0 1 0 0 0 1 1 2 2 2 3 5 3 3 4 4 4 5 4 4 4 9 11 11 11 11 11 11 11 11 12
1 1 1 1 1 1 1 1 0 0 0 0 0 0 1 0 1 1 2 2 2 2 2 4 4 3 3 3 4 4 5 4 5 7 9 10 10 11 11 11 11 11 11
1 1 1 1 1 1 1 1 0 0 0 0 1 1 1 1 2 2 2 2 2 2 3 3 4 3 3 3 3 4 5 4 5 5 7 7 9 10 11 11 11 10 11
1 1 1 1 2 1 1 0 0 0 0 1 1 1 1 2 2 2 2 2 2 2 3 3 4 3 3 3 3 3 5 5 5 3 3 4 5 4 5 8 9 10 11
2 2 2 1 2 1 3 2 1 0 0 0 1 2 2 2 3 4 5 4 3 3 4 4 4 5 5 4 4 4 5 5 5 2 3 6 4 5 4 4 9 11 11
1 1 2 1 1 2 3 2 2 1 0 1 1 1 2 2 3 2 3 5 4 6 5 4 5 5 5 4 4 5 5 5 6 4 4 6 4 5 5 6 11 11 11
0 1 1 1 1 3 4 3 3 2 1 1 1 1 2 3 3 3 2 2 3 3 4 3 3 4 4 4 4 5 6 6 5 4 3 5 4 5 6 5 9 10 11
0 1 1 1 1 3 4 4 3 1 1 2 2 2 2 2 5 5 3 3 3 3 5 6 6 6 7 7 5 3 4 4 5 4 2 3 3 5 5 5 5 9 10
0 0 1 1 1 2 3 3 2 1 1 1 2 2 4 4 5 5 3 2 3 4 4 4 4 5 4 5 6 3 3 4 4 4 1 2 3 4 5 3 3 4 5
Wind_Direction
224 225 221 216 212 208 206 201 201 202 210 214 215 215 218 218 219 218 235 240 243 246 244 244 242 240 240 241 243 246 251 255 256 258 261 268 272 272 272 273 274 277 280
219 224 227 222 218 212 211 208 208 209 214 216 224 222 222 220 223 222 223 237 239 239 239 241 244 243 243 245 244 248 251 255 258 260 263 267 272 272 272 271 273 275 277
222 219 225 227 223 215 212 212 212 213 218 218 226 225 223 221 220 223 221 223 231 235 237 240 243 245 248 250 249 251 252 253 257 261 265 267 268 267 271 271 273 275 277
230 220 223 230 226 216 211 212 210 213 220 223 228 228 223 221 223 221 217 218 219 225 232 237 241 244 247 249 252 253 254 254 254 258 262 264 265 266 268 269 272 274 277
239 227 229 231 220 217 220 221 213 208 217 224 229 230 225 223 222 217 217 217 215 214 216 232 238 242 246 247 252 256 257 254 253 256 261 265 268 270 271 269 271 273 275
251 234 233 232 220 219 222 221 220 212 214 218 231 235 230 227 217 217 218 216 213 216 216 220 228 240 244 247 250 256 261 260 256 256 258 263 268 270 272 272 273 273 275
263 242 245 231 219 221 224 218 218 218 218 193 210 244 247 229 223 219 211 214 219 218 215 217 214 214 235 242 251 259 265 267 267 265 264 264 266 269 271 273 274 273 274
275 258 238 240 234 227 225 222 214 219 215 189 186 198 248 257 236 222 209 214 222 211 213 217 212 212 216 215 245 255 264 268 273 272 271 270 269 268 269 270 273 275 274
287 272 255 240 238 231 230 224 214 215 222 207 195 189 198 224 237 235 218 218 213 210 217 212 213 215 213 210 224 254 262 267 271 275 273 273 272 271 271 271 272 273 276
295 285 270 253 243 237 242 239 223 217 212 213 208 221 225 190 192 243 253 231 216 218 221 222 218 216 212 212 225 246 259 265 271 277 279 278 276 274 273 273 274 274 273
304 298 284 273 264 253 247 241 230 216 214 216 204 199 221 238 222 213 250 258 252 236 227 224 219 215 211 218 228 251 263 268 274 278 281 282 280 279 277 277 276 275 274
323 329 327 327 308 285 266 250 225 209 205 210 212 203 193 198 203 214 235 245 249 248 240 228 220 217 217 223 249 288 281 281 282 284 283 283 284 285 285 283 281 279 277
322 324 337 343 341 318 302 275 204 207 197 192 207 222 219 227 208 220 229 249 262 268 255 240 220 191 238 261 280 306 292 293 291 289 287 288 289 290 289 286 283 281 280
300 315 324 326 321 320 320 316 189 218 182 187 195 208 213 239 237 242 229 224 258 265 248 248 250 201 284 269 298 304 286 293 292 290 289 291 294 293 291 287 284 282 281
309 325 320 324 319 323 336 359 211 218 179 197 194 197 212 224 223 248 250 221 228 258 261 239 245 287 298 282 296 282 278 291 292 291 291 293 294 294 293 290 287 284 282
311 325 324 327 334 349 8 75 151 171 163 217 191 163 212 243 230 232 240 249 235 241 259 259 244 285 294 299 302 287 278 298 293 292 292 293 295 295 292 288 288 289 287
321 306 314 330 351 2 20 63 61 78 85 62 76 117 210 237 228 266 256 248 247 238 258 276 259 276 282 288 298 289 284 277 284 291 292 293 293 293 293 295 294 292 290
328 321 320 346 6 6 20 68 55 59 89 86 82 109 337 8 285 267 253 250 249 247 248 271 275 271 270 282 286 289 294 294 283 291 293 291 292 292 292 294 294 295 295
344 359 358 1 358 351 18 38 68 79 99 177 182 185 242 208 262 268 269 264 261 265 246 262 277 271 272 287 294 295 292 286 292 296 293 289 290 293 294 294 294 295 295
33 36 23 5 358 4 21 18 66 81 26 333 305 261 241 232 242 253 262 259 261 262 263 266 274 281 280 290 290 293 298 294 296 297 293 293 294 294 293 293 292 293 292
26 26 30 9 360 356 6 31 105 63 9 350 338 332 316 307 301 287 283 274 269 261 264 273 279 287 287 300 295 297 296 301 292 277 287 290 289 281 283 288 289 289 290
21 21 13 2 359 357 9 14 31 64 34 355 326 324 316 317 323 322 312 306 294 278 276 271 277 283 286 285 289 293 298 303 295 289 301 295 287 282 280 271 290 298 298
24 18 356 355 348 343 360 7 18 65 42 314 297 307 324 331 338 306 310 322 317 311 293 271 273 277 285 289 290 289 287 288 284 292 293 285 283 279 280 285 298 297 298
14 347 340 341 343 345 359 13 29 51 45 358 333 311 300 304 307 313 312 316 310 308 302 289 272 280 287 288 278 279 283 285 281 275 263 276 283 281 290 283 288 295 299
11 339 344 352 348 340 359 11 19 43 33 2 347 339 324 304 320 333 325 310 312 314 329 328 319 314 315 314 310 302 301 300 296 291 268 271 286 295 285 276 284 295 301
225 342 349 357 348 331 341 355 12 60 24 349 346 342 340 337 337 336 324 311 309 313 323 326 325 323 321 321 327 309 291 288 294 293 288 291 291 312 301 278 278 288 296